Location: Devore Heights
(34.2372°N, 117.4156°W)
Time: 10:32:23
(UTC+00:00)

Vanguard 2 - All Passes

Search period start: 07 September 2024 00:00
Search period end: 17 September 2024 00:00
Orbit: 552 x 2911 km, 32.9° (Epoch: 06 September)

Date Brightness Start Highest point End Pass type
(mag) Time Alt. Az. Time Alt. Az. Time Alt. Az.
07 Sep - 11:02:40 10° S 11:06:45 18° SE 11:12:08 10° E visible
07 Sep - 13:07:04 10° SW 13:14:10 61° SSE 13:26:12 10° E daylight
07 Sep - 15:14:27 10° W 15:24:07 85° S 15:39:54 10° E daylight
07 Sep - 17:23:03 10° W 17:35:37 73° SSW 17:53:11 10° ESE daylight
07 Sep - 19:33:13 10° W 19:47:20 44° SSW 20:03:23 10° SSE daylight
07 Sep - 21:48:45 10° WSW 21:58:00 17° SW 22:07:08 10° SSW daylight
08 Sep - 11:15:25 10° SSW 11:20:12 25° SE 11:27:02 10° E visible
08 Sep - 13:20:51 10° WSW 13:28:04 70° SSE 13:40:25 10° E daylight
08 Sep - 15:28:27 10° W 15:38:14 84° S 15:54:08 10° E daylight
08 Sep - 17:37:07 10° W 17:49:40 66° SSW 18:07:02 10° ESE daylight
08 Sep - 19:47:42 10° W 20:01:09 37° SW 20:16:17 10° SSE daylight
08 Sep - 22:07:38 10° WSW 22:11:40 11° SW 22:15:43 10° SSW daylight
09 Sep - 11:28:35 10° SSW 11:33:44 34° SE 11:41:33 10° E visible
09 Sep - 13:34:42 10° WSW 13:42:01 77° SSE 13:54:38 10° E daylight
09 Sep - 15:42:27 10° W 15:52:20 82° S 16:08:19 10° ESE daylight
09 Sep - 17:51:12 10° W 18:03:40 58° SSW 18:20:40 10° SE daylight
09 Sep - 20:02:29 10° W 20:14:56 29° SW 20:28:47 10° SSE daylight
10 Sep - 11:42:01 10° SW 11:47:22 43° SSE 11:55:54 10° E visible
10 Sep - 13:48:37 10° W 13:56:02 82° S 14:08:51 10° E daylight
10 Sep - 15:56:26 10° W 16:06:25 77° SSW 16:22:25 10° ESE daylight
10 Sep - 18:05:22 10° W 18:17:38 50° SSW 18:34:05 10° SE daylight
10 Sep - 20:17:45 10° W 20:28:43 23° SW 20:40:45 10° S daylight
11 Sep - 09:52:06 10° SSE 09:54:09 12° SE 09:56:29 10° ESE visible
11 Sep - 11:55:38 10° SW 12:01:07 54° SSE 12:10:07 10° E visible
11 Sep - 14:02:34 10° W 14:10:04 84° S 14:23:04 10° E daylight
11 Sep - 16:10:26 10° W 16:20:28 71° SSW 16:36:24 10° ESE daylight
11 Sep - 18:19:38 10° W 18:31:34 42° SSW 18:47:15 10° SSE daylight
11 Sep - 20:33:53 10° WSW 20:42:32 17° SW 20:51:48 10° S daylight
12 Sep - 10:04:20 10° S 10:07:38 19° SE 10:11:51 10° E visible
12 Sep - 12:09:22 10° WSW 12:14:57 65° SSE 12:24:17 10° E visible
12 Sep - 14:16:30 10° W 14:24:07 83° S 14:37:15 10° E daylight
12 Sep - 16:24:26 10° W 16:34:30 63° SSW 16:50:14 10° ESE daylight
12 Sep - 18:34:06 10° W 18:45:29 34° SSW 19:00:05 10° SSE daylight
12 Sep - 20:52:45 10° SW 20:56:24 11° SW 21:00:08 10° SSW daylight
13 Sep - 10:17:19 10° SSW 10:21:12 26° SE 10:26:29 10° E visible
13 Sep - 12:23:11 10° WSW 12:28:52 74° SSE 12:38:27 10° E visible
13 Sep - 14:30:28 10° W 14:38:10 80° S 14:51:25 10° ESE daylight
13 Sep - 16:38:29 10° W 16:48:30 55° SSW 17:03:51 10° SE daylight
13 Sep - 18:48:52 10° W 18:59:25 27° SW 19:12:30 10° SSE daylight
14 Sep - 10:30:41 10° SW 10:34:51 36° SSE 10:40:50 10° E visible
14 Sep - 12:37:05 10° W 12:42:50 79° S 12:52:35 10° E visible
14 Sep - 14:44:24 10° W 14:52:12 74° S 15:05:29 10° ESE daylight
14 Sep - 16:52:37 10° W 17:02:30 46° SSW 17:17:15 10° SE daylight
14 Sep - 19:04:08 10° WSW 19:13:20 21° SW 19:24:18 10° S daylight
15 Sep - 10:44:15 10° SW 10:48:36 47° SSE 10:55:01 10° E visible
15 Sep - 12:50:59 10° W 12:56:49 82° S 13:06:45 10° E visible
15 Sep - 14:58:22 10° W 15:06:11 67° SSW 15:19:26 10° ESE daylight
15 Sep - 17:06:54 10° W 17:16:28 38° SSW 17:30:21 10° SSE daylight
15 Sep - 19:20:28 10° WSW 19:27:18 15° SW 19:35:01 10° S daylight
16 Sep - 08:53:04 10° S 08:55:17 14° SE 08:57:43 10° ESE night (unlit)
16 Sep - 10:57:57 10° WSW 11:02:25 59° SSE 11:09:09 10° E visible
16 Sep - 13:04:55 10° W 13:10:49 81° S 13:20:54 10° E visible
16 Sep - 15:12:22 10° W 15:20:12 58° SSW 15:33:14 10° SE daylight
16 Sep - 17:21:22 10° W 17:30:28 30° SSW 17:43:06 10° SSE daylight
